HULIANWANG DIGUI E

Last updated on Thu May 29 2025 00:02:04 GMT+0000 (Coordinated Universal Time)

1 63691U 25086E 25147.46717251 .00000071 00000+0 12607-3 0 9994 2 63691 86.5072 83.0263 0001489 94.6890 265.4415 13.26575280 3802
UTC large
Height (km)
Speed (km/s)
/
Latitude / Longitude
Inclination (degrees)
Orbital Period (minutes)
Azimuth
Elevation
Range (km)
Doppler Factor

Next 0 passes for location: London (51.5072 / 0.1276)

Sorry there are no passes over London.